Time,TemperatureF,DewpointF,PressureIn,WindDirection,WindDirectionDegrees,WindSpeedMPH,WindSpeedGustMPH,Humidity,HourlyPrecipIn,Conditions,Clouds,dailyrainin,SolarRadiationWatts/m^2,SoftwareType,DateUTC
2013-09-10 00:22:00,64.0,36.0,-100.00,South,189,11.0,13.0,35,0.00,,,0.00,1.000000,,2013-09-10 07:22:00,
2013-09-10 00:32:00,64.0,36.0,-100.00,South,189,11.0,13.0,35,0.00,,,0.00,1.000000,,2013-09-10 07:32:00,
2013-09-10 00:42:00,64.0,36.0,-100.00,South,189,11.0,13.0,35,0.00,,,0.00,1.000000,,2013-09-10 07:42:00,
2013-09-10 00:52:00,64.0,36.0,-100.00,South,189,11.0,13.0,35,0.00,,,0.00,1.000000,,2013-09-10 07:52:00,
2013-09-10 01:22:00,64.0,36.0,-100.00,South,191,13.0,15.0,35,0.00,,,0.00,1.000000,,2013-09-10 08:22:00,
2013-09-10 01:32:00,64.0,36.0,-100.00,South,191,13.0,15.0,35,0.00,,,0.00,1.000000,,2013-09-10 08:32:00,
2013-09-10 01:42:00,64.0,36.0,-100.00,South,191,13.0,15.0,35,0.00,,,0.00,1.000000,,2013-09-10 08:42:00,
2013-09-10 01:52:00,64.0,36.0,-100.00,South,191,13.0,15.0,35,0.00,,,0.00,1.000000,,2013-09-10 08:52:00,
2013-09-10 02:21:00,64.0,35.0,-100.00,South,189,16.0,19.0,34,0.00,,,0.00,1.000000,,2013-09-10 09:21:00,
2013-09-10 02:33:00,64.0,35.0,-100.00,South,189,16.0,19.0,34,0.00,,,0.00,1.000000,,2013-09-10 09:33:00,
2013-09-10 02:43:00,64.0,35.0,-100.00,South,189,16.0,19.0,34,0.00,,,0.00,1.000000,,2013-09-10 09:43:00,
2013-09-10 02:54:00,64.0,35.0,-100.00,South,189,16.0,19.0,34,0.00,,,0.00,1.000000,,2013-09-10 09:54:00,
2013-09-10 03:23:00,63.0,38.0,-100.00,SSW,195,17.0,21.0,40,0.00,,,0.00,1.000000,,2013-09-10 10:23:00,
2013-09-10 03:33:00,63.0,38.0,-100.00,SSW,195,17.0,21.0,40,0.00,,,0.00,1.000000,,2013-09-10 10:33:00,
2013-09-10 03:42:00,63.0,38.0,-100.00,SSW,195,17.0,21.0,40,0.00,,,0.00,1.000000,,2013-09-10 10:42:00,
2013-09-10 03:53:00,63.0,38.0,-100.00,SSW,195,17.0,21.0,40,0.00,,,0.00,1.000000,,2013-09-10 10:53:00,
2013-09-10 07:21:00,62.0,32.0,-100.00,South,190,16.0,20.0,32,-99.99,,,0.00,8.000000,,2013-09-10 14:21:00,
2013-09-10 07:32:00,62.0,32.0,-100.00,South,190,16.0,20.0,32,-99.99,,,0.00,8.000000,,2013-09-10 14:32:00,
2013-09-10 07:42:00,62.0,32.0,-100.00,South,190,16.0,20.0,32,-99.99,,,0.00,8.000000,,2013-09-10 14:42:00,
2013-09-10 07:52:00,62.0,32.0,-100.00,South,190,16.0,20.0,32,-99.99,,,0.00,8.000000,,2013-09-10 14:52:00,
2013-09-10 08:22:00,64.0,30.0,-100.00,South,189,16.0,21.0,28,0.00,,,0.00,127.000000,,2013-09-10 15:22:00,
2013-09-10 08:34:00,64.0,30.0,-100.00,South,189,16.0,21.0,28,0.00,,,0.00,127.000000,,2013-09-10 15:34:00,
2013-09-10 08:43:00,64.0,30.0,-100.00,South,189,16.0,21.0,28,0.00,,,0.00,127.000000,,2013-09-10 15:43:00,
2013-09-10 08:54:00,64.0,30.0,-100.00,South,189,16.0,21.0,28,0.00,,,0.00,127.000000,,2013-09-10 15:54:00,
2013-09-10 09:43:00,66.0,29.0,-100.00,South,185,15.0,21.0,25,0.00,,,-99.99,387.000000,,2013-09-10 16:43:00,
2013-09-10 09:53:00,66.0,29.0,-100.00,South,185,15.0,21.0,25,0.00,,,-99.99,387.000000,,2013-09-10 16:53:00,
2013-09-10 10:43:00,71.0,30.0,-100.00,South,175,16.0,23.0,22,0.00,,,0.00,514.000000,,2013-09-10 17:43:00,
2013-09-10 10:52:00,71.0,30.0,-100.00,South,175,16.0,23.0,22,0.00,,,0.00,514.000000,,2013-09-10 17:52:00,
2013-09-10 11:21:00,75.0,32.0,-100.00,South,182,15.0,22.0,21,0.00,,,0.00,542.000000,,2013-09-10 18:21:00,
2013-09-10 11:32:00,75.0,32.0,-100.00,South,182,15.0,22.0,21,0.00,,,0.00,542.000000,,2013-09-10 18:32:00,
2013-09-10 11:42:00,75.0,32.0,-100.00,South,182,15.0,22.0,21,0.00,,,0.00,542.000000,,2013-09-10 18:42:00,
2013-09-10 11:52:00,75.0,32.0,-100.00,South,182,15.0,22.0,21,0.00,,,0.00,542.000000,,2013-09-10 18:52:00,
2013-09-10 12:42:00,76.0,31.0,-100.00,South,184,16.0,26.0,19,0.00,,,0.00,793.000000,,2013-09-10 19:42:00,
2013-09-10 12:52:00,76.0,31.0,-100.00,South,184,16.0,26.0,19,0.00,,,0.00,793.000000,,2013-09-10 19:52:00,
2013-09-10 13:21:00,79.0,33.0,-100.00,South,178,16.0,25.0,19,0.00,,,-99.99,1002.000000,,2013-09-10 20:21:00,
2013-09-10 13:32:00,79.0,33.0,-100.00,South,178,16.0,25.0,19,0.00,,,-99.99,1002.000000,,2013-09-10 20:32:00,
2013-09-10 13:42:00,79.0,33.0,-100.00,South,178,16.0,25.0,19,0.00,,,-99.99,1002.000000,,2013-09-10 20:42:00,
2013-09-10 13:52:00,79.0,33.0,-100.00,South,178,16.0,25.0,19,0.00,,,-99.99,1002.000000,,2013-09-10 20:52:00,
2013-09-10 14:44:00,77.0,32.0,-100.00,South,177,16.0,24.0,19,0.00,,,0.00,966.000000,,2013-09-10 21:44:00,
2013-09-10 14:54:00,77.0,32.0,-100.00,South,177,16.0,24.0,19,0.00,,,0.00,966.000000,,2013-09-10 21:54:00,
2013-09-10 15:42:00,78.0,35.0,-100.00,South,181,17.0,24.0,21,0.00,,,0.00,861.000000,,2013-09-10 22:42:00,
2013-09-10 15:54:00,78.0,35.0,-100.00,South,181,17.0,24.0,21,0.00,,,0.00,861.000000,,2013-09-10 22:54:00,
2013-09-10 16:42:00,76.0,40.0,-100.00,South,185,17.0,29.0,27,0.00,,,0.00,735.000000,,2013-09-10 23:42:00,
2013-09-10 16:53:00,76.0,40.0,-100.00,South,185,17.0,29.0,27,0.00,,,0.00,735.000000,,2013-09-10 23:53:00,
2013-09-10 17:22:00,73.0,40.0,-100.00,South,180,19.0,30.0,30,0.00,,,0.00,543.000000,,2013-09-11 00:22:00,
2013-09-10 17:32:00,73.0,40.0,-100.00,South,180,19.0,30.0,30,0.00,,,0.00,543.000000,,2013-09-11 00:32:00,
2013-09-10 17:42:00,73.0,40.0,-100.00,South,180,19.0,30.0,30,0.00,,,0.00,543.000000,,2013-09-11 00:42:00,
2013-09-10 17:52:00,73.0,40.0,-100.00,South,180,19.0,30.0,30,0.00,,,0.00,543.000000,,2013-09-11 00:52:00,
2013-09-10 18:42:00,69.0,41.0,-100.00,South,184,17.0,25.0,36,0.00,,,0.00,297.000000,,2013-09-11 01:42:00,
2013-09-10 18:53:00,69.0,41.0,-100.00,South,184,17.0,25.0,36,0.00,,,0.00,297.000000,,2013-09-11 01:53:00,
2013-09-10 19:22:00,65.0,44.0,-100.00,South,186,15.0,21.0,46,0.00,,,0.00,48.000000,,2013-09-11 02:22:00,
2013-09-10 19:32:00,65.0,44.0,-100.00,South,186,15.0,21.0,46,0.00,,,0.00,48.000000,,2013-09-11 02:32:00,
2013-09-10 19:43:00,65.0,44.0,-100.00,South,186,15.0,21.0,46,0.00,,,0.00,48.000000,,2013-09-11 02:43:00,
2013-09-10 19:52:00,65.0,44.0,-100.00,South,186,15.0,21.0,46,0.00,,,0.00,48.000000,,2013-09-11 02:52:00,
2013-09-10 20:22:00,63.0,48.0,-100.00,SSW,192,14.0,20.0,59,0.00,,,0.00,2.000000,,2013-09-11 03:22:00,
2013-09-10 20:34:00,63.0,48.0,-100.00,SSW,192,14.0,20.0,59,0.00,,,0.00,2.000000,,2013-09-11 03:34:00,
2013-09-10 20:44:00,63.0,48.0,-100.00,SSW,192,14.0,20.0,59,0.00,,,0.00,2.000000,,2013-09-11 03:44:00,
2013-09-10 20:54:00,63.0,48.0,-100.00,SSW,192,14.0,20.0,59,0.00,,,0.00,2.000000,,2013-09-11 03:54:00,
2013-09-10 21:24:00,62.0,47.0,-100.00,SSW,193,15.0,19.0,58,0.00,,,0.00,1.000000,,2013-09-11 04:24:00,
2013-09-10 21:33:00,62.0,47.0,-100.00,SSW,193,15.0,19.0,58,0.00,,,0.00,1.000000,,2013-09-11 04:33:00,
2013-09-10 21:43:00,62.0,47.0,-100.00,SSW,193,15.0,19.0,58,0.00,,,0.00,1.000000,,2013-09-11 04:43:00,
2013-09-10 21:53:00,62.0,47.0,-100.00,SSW,193,15.0,19.0,58,0.00,,,0.00,1.000000,,2013-09-11 04:53:00,
2013-09-10 22:22:00,63.0,37.0,-100.00,SSW,193,14.0,18.0,38,0.00,,,0.00,1.000000,,2013-09-11 05:22:00,
2013-09-10 22:34:00,63.0,37.0,-100.00,SSW,193,14.0,18.0,38,0.00,,,0.00,1.000000,,2013-09-11 05:34:00,
2013-09-10 22:42:00,63.0,37.0,-100.00,SSW,193,14.0,18.0,38,0.00,,,0.00,1.000000,,2013-09-11 05:42:00,
2013-09-10 22:53:00,63.0,37.0,-100.00,SSW,193,14.0,18.0,38,0.00,,,0.00,1.000000,,2013-09-11 05:53:00,
2013-09-10 23:21:00,63.0,35.0,-100.00,SSW,196,17.0,21.0,35,0.00,,,0.00,1.000000,,2013-09-11 06:21:00,
2013-09-10 23:32:00,63.0,35.0,-100.00,SSW,196,17.0,21.0,35,0.00,,,0.00,1.000000,,2013-09-11 06:32:00,
2013-09-10 23:42:00,63.0,35.0,-100.00,SSW,196,17.0,21.0,35,0.00,,,0.00,1.000000,,2013-09-11 06:42:00,
2013-09-10 23:52:00,63.0,35.0,-100.00,SSW,196,17.0,21.0,35,0.00,,,0.00,1.000000,,2013-09-11 06:52:00,